Home   Weather   Winchester   Past weeks

Flag for United Kingdom Past Weather in Winchester, England, United Kingdom — Yesterday and Last 2 Weeks

Now
64 °F

Drizzle. Broken clouds.


Feels Like: 64 °F
Forecast: 53 / 74 °F
Wind: 8 mph from West

Location: Middle Wallop

Current Time: Aug 31, 2016 at 5:21:10 PM

Latest Report: Aug 31, 2016 at 4:50 PM


Visibility: 4 mi

Pressure: 30.15 "Hg

Humidity: 88%

Dew Point: 61 °F

Location of WinchesterLocation

Past Weather in Winchester — Graph

°F

Winchester Temperature Yesterday

Maximum temperature yesterday: 77 °F (at 2:50 PM)
Minimum temperature yesterday: 52 °F (at 5:50 AM)
Average temperature yesterday: 64 °F

High & Low Weather Summary for the Past Weeks

 TemperatureHumidityPressure
High84 °F (Aug 24, 2:50 PM)100% (Aug 18, 5:50 AM)30.30 "Hg (Aug 18, 5:50 AM)
Low48 °F (Aug 31, 5:50 AM)36% (Aug 16, 4:50 PM)29.65 "Hg (Aug 19, 2:50 PM)
Average65 °F76%30.00 "Hg
* Reported Aug 16 3:50 PM — Aug 31 3:50 PM, Winchester, Weather by CustomWeather, © 2016

Note: Actual official high and low records may vary slightly from our data, if they occured in-between our weather recording intervals... More about our weather records

Advertising

Winchester Weather History for the Previous 24 Hours

Scroll right to see more
 ConditionsComfort  
Time TempWeatherWind HumidityBarometerVisibility
3:50 PM
Wed, Aug 31
68 °FBroken clouds.9 mph78%30.12 "HgN/A
2:50 PM68 °FDrizzle. Broken clouds.9 mph73%30.15 "HgN/A
1:50 PM70 °FLight rain. Scattered clouds.8 mph64%30.12 "HgN/A
12:50 PM70 °FPartly sunny.8 mph64%30.12 "HgN/A
11:50 AM68 °FPartly sunny.9 mph64%30.12 "HgN/A
10:50 AM66 °FOvercast.8 mph68%30.15 "HgN/A
9:50 AM64 °FPartly sunny.9 mph73%30.12 "HgN/A
8:50 AM57 °FFog.3 mph94%30.12 "Hg5 mi
7:50 AM52 °FRain. Fog.2 mph100%30.12 "Hg1 mi
6:50 AM50 °FFog.No wind100%30.12 "Hg1 mi
5:50 AM48 °FFog.1 mph94%30.12 "Hg0 mi
4:50 AM52 °FClear.3 mph100%30.12 "Hg2 mi
3:50 AM52 °FClear.2 mph94%30.12 "Hg5 mi
2:50 AM55 °FClear.2 mph88%30.12 "HgN/A
1:50 AM55 °FClear.No wind88%30.15 "HgN/A
12:50 AM55 °FClear.2 mph88%30.15 "Hg10 mi
11:50 PM
Tue, Aug 30
57 °FClear.3 mph82%30.18 "Hg10 mi
10:50 PM59 °FClear.3 mph77%30.18 "Hg10 mi
9:50 PM61 °FClear.3 mph72%30.18 "Hg10 mi
8:50 PM64 °FSunny.2 mph64%30.18 "Hg10 mi
7:50 PM66 °FSunny.7 mph60%30.18 "Hg10 mi
6:50 PM72 °FSunny.9 mph50%30.18 "Hg10 mi
5:50 PM73 °FSunny.9 mph44%30.18 "Hg10 mi
Weather by CustomWeather, © 2016

See weather overviewHow to use our weather pages